DECAYED
Showing default

COSMOS 2574, 58658 (Decayed)

Orbit data source: Space-Track

COSMOS 2574, 58658 was a payload satellite owned by MO RF (CIS) in LEO that was launched on Wed, 27 Dec 2023 UTC via a SOYUZ-2-1V launch vehicle from the Plesetsk Missile And Space Complex (PKMTR). Payload-class satellites include a variety of spacecraft equipped with specific instruments for various scientific and technological missions. These include communications satellites like Starlink; space stations such as the ISS; scientific satellites like the Hubble; Earth observation satellites from companies like Planet Labs, Umbra, and HawkEye 360; GPS; miniature CubeSats for education and research; and military/defense satellites.

Not visible in the next 10 days
Identifier
58658, 2023-209A
Orbit
Decayed
Country
Flag of CISCIS
Related business
Manufacturer
VNIIEM
Mission
Decayed Defense Imaging
Bus & Motor
EMKA, Unknown motor
Mass
520 kg wet, ~500 kg dry
Launch date (UTC)
2023-12-27 (2 years ago)
Launch vehicle
SOYUZ-2-1V
Launch site
Plesetsk Missile And Space Complex (PKMTR)
Object type
Payload
Rocket body
Debris
Shape & HBR
Cyl + 2 Pan, 1.5 m
Radar Cross Section
3.727 m², Large (>1 m²)

Expand to show TLE details & history
Last TLE update: 7 months ago

TLE from 7 months ago
0 COSMOS 2574
1 58658U 23209A   25318.28014600  .04940600  21054-5  81622-3 0  9990
2 58658  96.6249 209.4973 0004323 178.3405 181.7908 16.33471564109031
Epoch: 2025-11-14T06:43Z
TLE epoch observation values (Epoch: 2025-11-14T06:43:24.614Z)
Latitude
-0.00004°
Longitude
55.01884°
Altitude
189.327 km
Speed
7.791 km/s
True Right ascension
13h 57m 59s
True Declination
0° 00' 00"
Sunlit
Object was in daylight at epoch
Visualization orbit readout
Latitude
Unknown
Longitude
Unknown
Altitude
Unknown
Speed
Unknown
Apparent Right ascension
Unknown
Apparent Declination
Unknown
Sunlit
N/A
Visualization observer readout
Local Sidereal Time
21:26:31
Azimuth
Unknown
Elevation
Unknown
Doppler factor
Unknown
Orbital elements
Apogee altitude
182.845 km
Perigee altitude
177.175 km
Semi-major axis
6,558.147 km
Eccentricity
0.00043
Inclination
96.6249°
RAAN
209.4973°
Arg. of periapsis
178.3405°
True anomaly
181.78925°
Mean anomaly
181.7908°
Eccentric anomaly
181.79003°
Mean motion
4.08669 °/min
Orbital period
88.09 mins
BSTAR
0.00081622
Loading maneuver chart data...
Computing Atmospheric mass density...
Loading historical data...
Loading historical data...
Loading historical data...
Loading historical data...
Loading historical data...
Loading historical data...
Loading historical data...
Other satellites on launch #209 in the year 2023 (2023-12-27 UTC)

Documentation

Showing up to 5 results
|